Detroit, MI

7:27 AM EDT on July 26, 2016 (GMT -0400)
Detroit Metro Wayne County

Weather History for KDTW - September, 2012

Change the Weather History Date:

Sunday, September 2, 2012

  Actual Average Record
Temperature  
Mean Temperature 75 °F 69 °F  
Max Temperature 81 °F 79 °F 100 °F (1953)
Min Temperature 69 °F 60 °F 44 °F (1885)
Degree Days  
Heating Degree Days 0 1  
Month to date heating degree days 0 2  
Since 1 July heating degree days 1 12  
Cooling Degree Days 10 5  
Month to date cooling degree days 22 10  
Year to date cooling degree days 1080 721  
Growing Degree Days 25 (Base 50)    
Moisture  
Dew Point 63 °F    
Average Humidity 67    
Maximum Humidity 84    
Minimum Humidity 50    
Precipitation  
Precipitation T in 0.11 in 1.16 in (1922)
Month to date precipitation T 0.22  
Year to date precipitation 18.96 22.65  
Snow  
Snow 0.00 in 0.00 in 0.00 in ()
Month to date snowfall 0.0 0.0  
Since 1 July snowfall 0.0 0.0  
Since 1 September snowfall 0.0 0.0  
Snow Depth 0.00 in    
Sea Level Pressure  
Sea Level Pressure 30.01 in    
Wind  
Wind Speed 7 mph (NE)    
Max Wind Speed 14 mph    
Max Gust Speed 18 mph    
Visibility 10 miles    
Events      
T = Trace of Precipitation, MM = Missing Value Source: NWS Daily Summary

Daily Weather History Graph

Daily Weather History Graph

Search for Another Location

Airport or City:

Trip Planner

Search our weather history database for the weather conditions in past years. The results will help you decide how hot, cold, wet, or windy it might be!

Date:

Astronomy

Sep. 02, 2012 Rise Set
Actual Time 7:00 AM EDT 8:04 PM EDT
Civil Twilight 6:31 AM EDT 8:33 PM EDT
Nautical Twilight 5:57 AM EDT 9:07 PM EDT
Astronomical Twilight 5:21 AM EDT 9:43 PM EDT
Moon 8:47 PM EDT (9/2) 9:11 AM EDT (9/2)
Length of Visible Light 14h 01m
Length of Day
13h 04m
Waning Gibbous, 95% of the Moon is Illuminated
Sep 2
Waning Gibbous
Sep 8
Last Quarter
Sep 15
New
Sep 22
First Quarter
Sep 29
Full

Hourly Weather History & Observations

Time (EDT) Temp. Heat Index Dew Point Humidity Pressure Visibility Wind Dir Wind Speed Gust Speed Precip Events Conditions
12:53 AM 75.0 °F - 55.0 °F 50% 30.06 in 10.0 mi NE 5.8 mph - N/A   Overcast
1:53 AM 72.0 °F - 53.1 °F 51% 30.05 in 10.0 mi North 4.6 mph - N/A   Overcast
2:53 AM 72.0 °F - 55.0 °F 55% 30.03 in 10.0 mi North 5.8 mph - N/A   Overcast
3:53 AM 72.0 °F - 57.9 °F 61% 30.03 in 10.0 mi Calm Calm - 0.00 in   Overcast
4:53 AM 70.0 °F - 60.1 °F 71% 30.02 in 10.0 mi NNE 5.8 mph - N/A   Overcast
5:53 AM 69.1 °F - 63.0 °F 81% 30.01 in 10.0 mi NE 4.6 mph - N/A   Overcast
6:53 AM 69.1 °F - 63.0 °F 81% 30.03 in 10.0 mi NE 3.5 mph - N/A   Overcast
7:53 AM 69.1 °F - 64.9 °F 87% 30.04 in 10.0 mi NNE 6.9 mph - N/A   Overcast
8:53 AM 71.1 °F - 64.9 °F 81% 30.02 in 10.0 mi NNE 11.5 mph - N/A   Overcast
9:53 AM 73.0 °F - 66.9 °F 81% 30.02 in 10.0 mi NNE 6.9 mph - N/A   Overcast
10:37 AM 73.4 °F - 68.0 °F 83% 30.03 in 10.0 mi NNE 9.2 mph - N/A   Overcast
10:53 AM 75.9 °F - 68.0 °F 76% 30.02 in 10.0 mi NE 9.2 mph - N/A   Overcast
11:20 AM 75.2 °F - 66.2 °F 73% 30.03 in 10.0 mi NE 6.9 mph - N/A   Overcast
11:48 AM 77.0 °F - 68.0 °F 74% 30.03 in 10.0 mi ENE 6.9 mph - N/A   Overcast
11:53 AM 77.0 °F - 69.1 °F 76% 30.02 in 10.0 mi ENE 8.1 mph - N/A   Overcast
11:58 AM 77.0 °F - 68.0 °F 74% 30.04 in 10.0 mi ENE 8.1 mph - N/A   Overcast
12:33 PM 75.2 °F - 69.8 °F 83% 30.03 in 10.0 mi ENE 9.2 mph - N/A   Overcast
12:53 PM 75.0 °F - 69.1 °F 82% 30.02 in 8.0 mi ENE 9.2 mph - N/A   Overcast
1:53 PM 75.9 °F - 66.9 °F 74% 30.01 in 9.0 mi NE 8.1 mph - N/A   Overcast
2:35 PM 77.0 °F - 66.2 °F 69% 30.02 in 10.0 mi ENE 8.1 mph - N/A   Overcast
2:53 PM 78.1 °F - 66.9 °F 68% 30.00 in 10.0 mi East 9.2 mph - N/A   Overcast
3:53 PM 79.0 °F - 66.9 °F 66% 29.98 in 10.0 mi ENE 6.9 mph - N/A   Overcast
4:33 PM 78.8 °F - 66.2 °F 65% 29.99 in 10.0 mi East 5.8 mph - N/A   Mostly Cloudy
4:53 PM 80.1 °F 82.1 °F 66.0 °F 62% 29.97 in 10.0 mi ENE 6.9 mph - N/A   Mostly Cloudy
5:53 PM 81.0 °F 82.5 °F 64.0 °F 56% 29.96 in 10.0 mi NNE 10.4 mph - N/A   Mostly Cloudy
6:53 PM 79.0 °F - 62.1 °F 56% 29.96 in 10.0 mi NE 10.4 mph - N/A   Mostly Cloudy
7:53 PM 78.1 °F - 60.1 °F 54% 29.96 in 10.0 mi NE 8.1 mph - N/A   Mostly Cloudy
8:53 PM 77.0 °F - 57.9 °F 52% 29.98 in 10.0 mi ENE 6.9 mph - N/A   Scattered Clouds
9:53 PM 75.0 °F - 57.9 °F 55% 29.99 in 10.0 mi ENE 3.5 mph - N/A   Scattered Clouds
10:53 PM 73.0 °F - 57.9 °F 59% 29.98 in 10.0 mi ENE 3.5 mph - N/A   Mostly Cloudy
11:53 PM 73.0 °F - 57.0 °F 57% 29.98 in 10.0 mi NE 5.8 mph - N/A   Mostly Cloudy